Location: Observatoire
(46.1952°N, 5.3391°E)
Time: 12:50:09
(UTC+01:00)

Vanguard 3 - Visible Passes

Search period start: 16 February 2026 00:00
Search period end: 26 February 2026 00:00
Orbit: 507 x 3205 km, 33.3° (Epoch: 16 February)

Date Brightness Start Highest point End Pass type
(mag) Time Alt. Az. Time Alt. Az. Time Alt. Az.
16 Feb 8.7 19:36:24 10° SW 19:40:29 19° S 19:43:03 13° SSE visible
17 Feb 8.8 20:26:31 10° SW 20:29:24 15° SSW 20:30:04 14° S visible
18 Feb 8.9 19:03:14 10° WSW 19:08:31 23° SSW 19:12:18 10° SE visible
19 Feb 8.9 19:53:28 10° WSW 19:57:26 17° SSW 20:00:12 11° SSE visible
20 Feb 9.3 20:45:28 10° SW 20:46:06 10° SSW 20:46:42 10° SSW visible
21 Feb 9.1 19:20:10 10° WSW 19:25:24 21° SSW 19:29:10 10° SSE visible
22 Feb 9.4 20:11:29 10° WSW 20:14:02 13° SSW 20:16:13 10° S visible
23 Feb 9.3 18:46:38 10° WSW 18:53:16 24° SSW 18:57:47 10° SSE visible
24 Feb 9.5 19:37:49 10° WSW 19:41:54 15° SW 19:45:07 10° S visible
